Quincy, IL

2:21 AM CST on November 17, 2019 (GMT -0600)
Quincy Regional-Baldwin

Weather History for KUIN - September, 2019

Change the Weather History Date:

Tuesday, September 17, 2019

  Actual Average Record
Temperature  
Mean Temperature 76 °F 66 °F  
Max Temperature 86 °F 77 °F 99 °F (1927)
Min Temperature 66 °F 55 °F 39 °F (1903)
Degree Days  
Heating Degree Days 0 3  
Month to date heating degree days 0 23  
Since 1 July heating degree days 2 28  
Cooling Degree Days 11 4  
Month to date cooling degree days 150 92  
Year to date cooling degree days 1207 1045  
Growing Degree Days 26 (Base 50)    
Moisture  
Dew Point 67 °F    
Average Humidity 76    
Maximum Humidity 93    
Minimum Humidity 57    
Precipitation  
Precipitation 0.00 in 0.11 in 2.32 in (1944)
Month to date precipitation 0.73 1.86  
Year to date precipitation 31.76 27.61  
Sea Level Pressure  
Sea Level Pressure 30.05 in    
Wind  
Wind Speed 6 mph ()    
Max Wind Speed 10 mph    
Max Gust Speed 20 mph    
Visibility 9.2 miles    
Events      
T = Trace of Precipitation, MM = Missing Value Source: Averaged Metar Reports

Daily Weather History Graph

Daily Weather History Graph

Search for Another Location

Airport or City:

Astronomy

Sep. 17, 2019 Rise Set
Actual Time 6:47 AM CDT 7:10 PM CDT
Civil Twilight 6:20 AM CDT 7:37 PM CDT
Nautical Twilight 5:48 AM CDT 8:09 PM CDT
Astronomical Twilight 5:15 AM CDT 8:41 PM CDT
Moon 9:13 PM CDT 9:52 AM CDT
Length of Visible Light 13h 17m
Length of Day
12h 23m
Waning Gibbous, 89% of the Moon is Illuminated
Sep 17
Waning Gibbous
Sep 21
Last Quarter
Sep 28
New
Oct 5
First Quarter
Oct 13
Full

Hourly Weather History & Observations

Time (CDT) Temp. Heat Index Dew Point Humidity Pressure Visibility Wind Dir Wind Speed Gust Speed Precip Events Conditions
12:54 AM 72.0 °F - 66.9 °F 84% 30.06 in 10.0 mi East 6.9 mph - N/A   Clear
1:54 AM 71.1 °F - 66.0 °F 84% 30.06 in 10.0 mi East 6.9 mph - N/A   Clear
3:54 AM 69.1 °F - 64.9 °F 87% 30.06 in 9.0 mi East 6.9 mph - N/A   Clear
4:54 AM 68.0 °F - 64.9 °F 90% 30.06 in 8.0 mi East 8.1 mph - N/A   Clear
5:54 AM 66.9 °F - 64.9 °F 93% 30.07 in 7.0 mi ESE 6.9 mph - N/A   Clear
6:54 AM 66.9 °F - 64.9 °F 93% 30.09 in 5.0 mi East 4.6 mph - N/A   Clear
7:54 AM 68.0 °F - 64.9 °F 90% 30.09 in 5.0 mi East 5.8 mph - N/A   Clear
8:54 AM 71.1 °F - 66.0 °F 84% 30.10 in 8.0 mi ESE 8.1 mph - N/A   Clear
9:54 AM 75.0 °F - 66.9 °F 76% 30.09 in 10.0 mi SE 8.1 mph - N/A   Clear
10:54 AM 78.1 °F - 69.1 °F 74% 30.09 in 10.0 mi SE 6.9 mph - N/A   Clear
11:54 AM 81.0 °F 84.1 °F 69.1 °F 67% 30.08 in 10.0 mi ESE 8.1 mph - N/A   Clear
12:54 PM 82.9 °F 85.8 °F 68.0 °F 60% 30.07 in 10.0 mi SE 8.1 mph - N/A   Clear
1:54 PM 84.0 °F 87.8 °F 69.1 °F 61% 30.05 in 10.0 mi Variable 6.9 mph - N/A   Clear
2:54 PM 84.9 °F 88.8 °F 69.1 °F 59% 30.03 in 10.0 mi ESE 6.9 mph - N/A   Clear
3:54 PM 86.0 °F 90.7 °F 70.0 °F 59% 30.02 in 10.0 mi Variable 6.9 mph - N/A   Clear
4:54 PM 84.9 °F 89.4 °F 70.0 °F 61% 30.01 in 10.0 mi East 8.1 mph - N/A   Clear
5:54 PM 84.0 °F 87.8 °F 69.1 °F 61% 30.01 in 10.0 mi East 6.9 mph - N/A   Clear
6:54 PM 80.1 °F 82.9 °F 69.1 °F 69% 30.00 in 10.0 mi East 5.8 mph - N/A   Clear
7:54 PM 77.0 °F - 68.0 °F 74% 30.01 in 10.0 mi East 8.1 mph - N/A   Clear
8:54 PM 75.0 °F - 68.0 °F 79% 30.02 in 10.0 mi East 6.9 mph - N/A   Clear
10:54 PM 73.0 °F - 66.0 °F 79% 30.02 in 10.0 mi ESE 8.1 mph - N/A   Clear
11:54 PM 72.0 °F - 66.0 °F 81% 30.02 in 10.0 mi SE 8.1 mph - N/A   Clear